GW4708 Weather Reports


Display with metric or nautical units.
time (UTC)temp
F
wind
direction
speed
MPH
gust
MPH
rain 1hr
in
rain 24hr
in
rain mn
in
humidity
%
barometer
mb
20260505010025 78 76 0.0 0.0 0.00 0.00 0.00 37 1001.0
20260505004509 79 80 0.0 0.0 0.00 0.00 0.00 36 1001.0
20260505003012 80 88 0.0 0.0 0.00 0.00 0.00 33 1001.1
20260505001518 82 57 0.0 0.0 0.00 0.00 0.00 33 1001.1
20260505000021 83 50 0.0 1.0 0.00 0.00 0.00 30 1001.1
20260504234528 85 23 0.0 2.0 0.00 0.00 0.00 28 1001.2
20260504233008 85 89 0.0 1.0 0.00 0.00 0.00 26 1001.2
20260504231513 86 47 0.0 1.0 0.00 0.00 0.00 25 1001.3
20260504230020 87 63 0.0 0.0 0.00 0.00 0.00 25 1001.3
20260504224528 85 101 0.0 0.0 0.00 0.00 0.00 26 1001.4
20260504223025 85 82 0.0 0.0 0.00 0.00 0.00 26 1001.3
20260504221512 85 121 0.0 1.0 0.00 0.00 0.00 27 1001.2
20260504220016 87 55 0.0 2.0 0.00 0.00 0.00 27 1001.3
20260504214503 88 101 0.0 1.0 0.00 0.00 0.00 26 1001.3
20260504213003 86 87 0.0 3.0 0.00 0.00 0.00 28 1001.6
20260504211507 87 79 0.0 1.0 0.00 0.00 0.00 29 1001.7
20260504210015 86 224 0.0 1.0 0.00 0.00 0.00 27 1001.8
20260504204502 86 80 0.0 1.0 0.00 0.00 0.00 29 1002.2
20260504203004 85 131 0.0 1.0 0.00 0.00 0.00 32 1002.5
20260504201508 85 103 0.0 1.0 0.00 0.00 0.00 34 1002.6
20260504200014 85 129 0.0 1.0 0.00 0.00 0.00 30 1002.8
20260504194514 85 114 0.0 1.0 0.00 0.00 0.00 31 1002.8
20260504193018 84 115 0.0 1.0 0.00 0.00 0.00 33 1002.9
20260504191506 84 83 0.0 1.0 0.00 0.00 0.00 31 1003.0
20260504190011 84 134 0.0 1.0 0.00 0.00 0.00 29 1003.2
20260504184515 85 307 0.0 1.0 0.00 0.00 0.00 28 1003.1
20260504183023 84 108 0.0 1.0 0.00 0.00 0.00 31 1003.3
20260504181519 85 271 0.0 1.0 0.00 0.00 0.00 33 1003.3
20260504180006 84 311 0.0 1.0 0.00 0.00 0.00 34 1003.4
20260504174508 83 115 0.0 1.0 0.00 0.00 0.00 32 1003.5
20260504173012 83 295 0.0 1.0 0.00 0.00 0.00 33 1003.5
20260504171521 82 56 0.0 1.0 0.00 0.00 0.00 36 1003.6
20260504081519 59 272 0.0 0.0 0.00 0.00 0.00 56 1003.9
20260504044519 61 183 0.0 0.0 0.00 0.00 0.00 55 1005.6
20260504043021 63 176 0.0 0.0 0.00 0.00 0.00 55 1005.7
20260504041526 64 160 0.0 0.0 0.00 0.00 0.00 53 1005.9
20260504040028 65 1 0.0 0.0 0.00 0.00 0.00 52 1006.1
20260504034528 65 63 0.0 0.0 0.00 0.00 0.00 51 1006.4
20260504033017 66 79 0.0 0.0 0.00 0.00 0.00 49 1006.4
20260504031526 67 101 0.0 0.0 0.00 0.00 0.00 48 1006.4
20260504030029 68 115 0.0 1.0 0.00 0.00 0.00 47 1006.4
20260504024528 69 99 0.0 0.0 0.00 0.00 0.00 46 1006.2
20260504023030 70 89 0.0 1.0 0.00 0.00 0.00 46 1006.2
20260504021518 71 79 0.0 1.0 0.00 0.00 0.00 46 1006.0
20260504020033 71 152 0.0 1.0 0.00 0.00 0.00 45 1006.0
20260504014526 72 129 0.0 1.0 0.00 0.00 0.00 44 1005.9
20260504013019 73 342 0.0 1.0 0.00 0.00 0.00 43 1005.9